QZS-4 (QZSS/PRN 195)

Last updated on Sat Sep 05 2026 00:03:32 GMT+0000 (Coordinated Universal Time)

1 42965U 17062A 26245.50750369 -.00000299 00000+0 00000+0 0 9995 2 42965 40.0582 342.5009 0749657 269.4025 53.0976 1.00276693 32577
UTC large
Height (km)
Speed (km/s)
/
Latitude / Longitude
Inclination (degrees)
Orbital Period (minutes)
Azimuth
Elevation
Range (km)
Doppler Factor

Next 0 passes for location: London (51.5072 / 0.1276)

No passes found over London.
QZS-4 (QZSS/PRN 195)